カタログに戻る

CASSIOPE

運用中科学PO
NORAD 39265·PAYLOAD·🇨🇦 Canada

打ち上げ Sep 29, 2013 から Vandenberg Space Force Base

Loading…

次のパス (今後24時間)

TLE

最新Source: Space-Track

元期: Sep 14, 2026, 14:24 UTC

1 39265U 13055A   26257.60013265  .00037444 -60618-6  37229-3 0  9990
2 39265  80.9126 317.6249 0269748 119.5391 243.3033 15.31533019681329

AllMySatでCASSIOPEをリアルタイム追跡

Download on the App Store